Content
SEND FEEDBACK

Daily
Averages
Monthly
Summary
Mexico

SAN MARTINIANO, QUINTANA ROO


Home > North America > Mexico > Quintana Roo
Elevation: 49 feet     Latitude: 20 47N     Longitude: 087 16W

WEATHER
 
SELECT A DAY
Number of Records: 196,286;   Date Range: 2/21/06 - 7/23/14
 
SHARE

PRINT THIS DATA

[ ← Previous Day ]
WEATHER ALMANAC - MAY 10, 2013
[ Next Day → ]
[ °C ]   °F
Weather ElementAverageHighLow
Temperature60 °F89.6 °F (1:55 pm) (11:55 am)
Dewpoint40 °F73.4 °F (9:15 am) (7:00 pm)
Humidity68.5 %100 % (3:35 am)36 % (5:35 pm)
Barometer30.09 in30.18 in (12:35 am)30.03 in (6:35 pm)
Wind Speed5.2 mph13.8 mph (10:55 am)
Wind Gust17.3 mph (10:15 am)
Weather ElementAverage
Visibility9.8 mi
Wind DirectionSE (138.5 °)

Weather ElementTotal
Precipitation---
Heating Degree Days20.2 (Base 65)
Averaged from 67 records on May 10, 2013
WEATHER CONDITIONS BREAKOUT
WIND DIRECTION BREAKOUT
WEATHER BY HOUR - MAY 10, 2013
[ °C ]   °F
Local TimeTemperatureDewpointHumidityBarometerVisibilityWind DirectionWind SpeedGust SpeedPrecipitationEventsConditions
12:35 AM66.2 °F60.8 °F83 %30.18 in10.0 miCalmClear
12:55 AM68.0 °F59.0 °F73 %30.18 in10.0 miCalmClear
1:15 AM68.0 °F60.8 °F78 %30.17 in10.0 miCalmClear
1:55 AM66.2 °F60.8 °F83 %30.15 in10.0 miNE (50°)3.5 mphClear
2:15 AM64.4 °F60.8 °F88 %30.14 in10.0 miNE (50°)3.5 mphClear
2:35 AM66.2 °F60.8 °F83 %30.13 in10.0 miCalmScattered Clouds
2:55 AM64.4 °F62.6 °F94 %30.13 in10.0 miCalmClear
3:15 AM66.2 °F64.4 °F94 %30.12 in10.0 miCalmClear
3:35 AM64.4 °F64.4 °F100 %30.12 in10.0 miCalmClear
3:55 AM64.4 °F0.0 °F30.12 in10.0 miCalmMostly Cloudy
4:15 AM66.2 °F64.4 °F94 %30.11 in10.0 miNNE (20°)3.5 mphMostly Cloudy
4:35 AM64.4 °F64.4 °F100 %30.10 in10.0 miCalmScattered Clouds
4:55 AM66.2 °F0.0 °F30.10 in10.0 miCalmMostly Cloudy
5:15 AM66.2 °F0.0 °F30.10 in10.0 miCalmOvercast
5:35 AM68.0 °F0.0 °F30.09 in10.0 miEast (90°)3.5 mphOvercast
5:55 AM69.8 °F0.0 °F30.09 in10.0 miEast (100°)3.5 mphMostly Cloudy
6:15 AM69.8 °F0.0 °F30.09 in10.0 miEast (100°)3.5 mphMostly Cloudy
6:35 AM69.8 °F0.0 °F30.09 in10.0 miEast (90°)4.6 mphScattered Clouds
6:55 AM69.8 °F0.0 °F30.10 in7.0 miEast (100°)3.5 mphClear
7:15 AM69.8 °F0.0 °F30.09 in5.0 miEast (100°)4.6 mphHaze
7:35 AM71.6 °F0.0 °F30.10 in7.0 miEast (100°)4.6 mphClear
8:15 AM73.4 °F0.0 °F30.11 in10.0 miESE (120°)6.9 mphClear
8:35 AM75.2 °F0.0 °F30.11 in10.0 miESE (120°)9.2 mphClear
9:15 AM78.8 °F73.4 °F83 %30.12 in10.0 miESE (120°)10.4 mphScattered Clouds
9:35 AM78.8 °F71.6 °F78 %30.12 in10.0 miSE (130°)8.1 mphScattered Clouds
9:55 AM80.6 °F71.6 °F74 %30.12 in10.0 miSE (130°)10.4 mphScattered Clouds
10:15 AM82.4 °F71.6 °F70 %30.11 in10.0 miSE (140°)11.5 mph17.3 mphScattered Clouds
10:35 AM84.2 °F69.8 °F62 %30.11 in10.0 miSE (140°)11.5 mph17.3 mphScattered Clouds
10:55 AM84.2 °F69.8 °F62 %30.11 in10.0 miSSE (150°)13.8 mph17.3 mphScattered Clouds
11:15 AM84.2 °F68.0 °F58 %30.11 in10.0 miSSE (150°)9.2 mph16.1 mphMostly Cloudy
11:35 AM84.2 °F69.8 °F62 %30.11 in10.0 miSE (140°)11.5 mph16.1 mphMostly Cloudy
11:55 AM0.0 °F0.0 °F30.12 in10.0 miSSE (160°)9.2 mphScattered Clouds
12:15 PM86.0 °F66.2 °F51 %30.12 in10.0 miSouth (180°)9.2 mphMostly Cloudy
12:35 PM0.0 °F0.0 °F30.12 in10.0 miSouth (170°)8.1 mphScattered Clouds
1:15 PM0.0 °F0.0 °F30.12 in10.0 miSSE (160°)3.5 mphScattered Clouds
1:35 PM0.0 °F0.0 °F30.12 in10.0 miSSW (200°)8.1 mphMostly Cloudy
1:55 PM89.6 °F60.8 °F38 %30.11 in10.0 miSSW (210°)8.1 mphScattered Clouds
2:15 PM0.0 °F0.0 °F30.11 in10.0 miWSW (250°)6.9 mphClear
2:35 PM0.0 °F0.0 °F30.10 in10.0 miWNW (300°)4.6 mphClear
2:55 PM0.0 °F0.0 °F30.09 in10.0 miSouth (190°)5.8 mphScattered Clouds
3:15 PM0.0 °F0.0 °F30.08 in10.0 miSSW (210°)5.8 mphScattered Clouds
3:35 PM0.0 °F0.0 °F30.07 in10.0 miSouth (190°)8.1 mphScattered Clouds
3:55 PM0.0 °F0.0 °F30.07 in10.0 miWSW (250°)9.2 mphMostly Cloudy
4:15 PM0.0 °F0.0 °F30.06 in10.0 miNW (320°)8.1 mphScattered Clouds
4:35 PM0.0 °F0.0 °F30.05 in10.0 miWest (270°)5.8 mphScattered Clouds
4:55 PM0.0 °F0.0 °F30.05 in10.0 miWSW (250°)10.4 mph16.1 mphClear
5:15 PM0.0 °F0.0 °F30.05 in10.0 miWest (260°)11.5 mphClear
5:35 PM89.6 °F59.0 °F36 %30.04 in10.0 miWest (280°)10.4 mph17.3 mphClear
5:55 PM87.8 °F59.0 °F38 %30.04 in10.0 miWest (260°)11.5 mphClear
6:15 PM87.8 °F60.8 °F40 %30.04 in10.0 miWSW (250°)11.5 mphClear
6:35 PM87.8 °F62.6 °F43 %30.03 in10.0 miWSW (250°)6.9 mphClear
6:55 PM87.8 °F62.6 °F43 %30.03 in10.0 miWSW (250°)8.1 mphClear
7:15 PM86.0 °F62.6 °F45 %30.03 in10.0 miWest (260°)8.1 mphClear
7:35 PM84.2 °F64.4 °F51 %30.03 in10.0 miWSW (250°)4.6 mphClear
7:55 PM84.2 °F64.4 °F51 %30.04 in10.0 miWSW (240°)3.5 mphClear
8:15 PM82.4 °F64.4 °F54 %30.04 in10.0 miWest (260°)3.5 mphClear
8:35 PM80.6 °F64.4 °F58 %30.05 in10.0 miSSW (200°)3.5 mphClear
8:55 PM80.6 °F66.2 °F61 %30.06 in10.0 miCalmClear
9:15 PM78.8 °F66.2 °F65 %30.06 in10.0 miWest (270°)4.6 mphClear
9:35 PM78.8 °F68.0 °F69 %30.07 in10.0 miCalmClear
9:55 PM78.8 °F68.0 °F69 %30.07 in10.0 miCalmClear
10:15 PM77.0 °F68.0 °F74 %30.07 in10.0 miCalmClear
10:35 PM75.2 °F68.0 °F78 %30.08 in10.0 miCalmClear
10:55 PM75.2 °F68.0 °F78 %30.09 in10.0 miCalmClear
11:15 PM75.2 °F69.8 °F83 %30.09 in10.0 miWest (260°)3.5 mphClear
11:35 PM75.2 °F69.8 °F83 %30.09 in10.0 miWest (270°)4.6 mphClear
11:55 PM73.4 °F68.0 °F83 %30.10 in10.0 miWest (270°)3.5 mphClear
Hourly data recorded from KPCM, located miles away from San Martiniano, Quintana Roo







STORIES FROM OUR PARTNERS